Погода в Ивделе

Россия / Свердловская область     60°41′50″N   60°25′02″E
темп.,
°C
ветер,
м/с
пор.,
м/с
влажн.,
%
обл.,
%
осадки,
мм/ч
давл.,
гПа
погр.,
м
28 сентября, вт
вт2823:00−1ссв22935 0.0 103329
02:00−2с22955 0.0 103327
05:00−2с2396100 0.0 103352
08:00−1с259289 0.0 1032128
11:00+5св1266100 0.0 1031512
14:00+7ссв1256100 0.0 1029982
17:00+6ссв1264100 0.0 102878
20:00+1ссв118395 0.0 102910
29 сентября, ср
ср2923:00−1ссз119122 0.0 103010
02:00−2сз119324 0.0 102910
05:00−2сз119386 0.0 103010
08:00−1сз11885 0.0 103026
11:00+5ссз12595 0.0 1029514
14:00+8ссз12464 0.0 10281059
17:00+7с11562 0.0 102817
20:00+1з11755 0.0 102810
30 сентября, чт
чт3023:000з11815 0.0 102710
02:00−1з118815 0.0 102710
05:00−1зюз219283 0.0 102517
08:00+2з1284100 0.0 102487
11:00+7з247173 0.0 1023431
14:00+10зсз34627 0.0 1022741
17:00+7зсз377999 0.0 1022358
20:00+6сз3984100 0.0 1022466
1 октября, пт
пт123:00+6с4989100 0.0 1023569
02:00+5с279395 0.0 1024444
05:00+2ссв2598100 0.1 1026162
08:00+2ссв139779 0.0 102790
11:00+6ссз017015 0.0 1028566
14:00+8з226231 0.0 1027907
17:00+8ююз1268100 0.0 1027174
20:00+6зюз128139 0.0 102753
2 октября, сб
сб223:00+2зюз11897 0.0 102710
02:00+1з21905 0.0 102618
05:000з118845 0.0 102611
08:00+3з1273100 0.0 102563
11:00+6з2574100 0.0 1026231
14:00+9з4772100 0.0 10251006
17:00+8з3975100 0.0 1025600
20:00+6з3883100 0.0 1025268